This is the latest recevied weather packets stored in our database for station/object K0JRF-13. If no packets are shown the sender has not sent any weather packets the latest 10 day(s).
| Time | Temp. | Humidity | Pressure | Rain* | Wind** | Luminosity | Snow |
|---|---|---|---|---|---|---|---|
| 1787891388 | 18.89° C | 94% | 1016.3 hPa | 0 mm | - | - | - |
| 1787890788 | 18.89° C | 93% | 1016.3 hPa | 0 mm | - | - | - |
| 1787890188 | 18.89° C | 93% | 1015.9 hPa | 0 mm | - | - | - |
| 1787889588 | 18.89° C | 93% | 1015.9 hPa | 0 mm | - | - | - |
| 1787888988 | 18.89° C | 94% | 1016.3 hPa | 0 mm | - | - | - |
| 1787888388 | 19.44° C | 94% | 1015.9 hPa | 0 mm | - | - | - |
| 1787887788 | 18.89° C | 94% | 1016.3 hPa | 0 mm | - | - | - |
| 1787887188 | 19.44° C | 94% | 1016.3 hPa | 0 mm | - | - | - |
| 1787886588 | 19.44° C | 94% | 1015.9 hPa | 0 mm | - | - | - |
| 1787885988 | 19.44° C | 94% | 1015.9 hPa | 0 mm | - | - | - |
| 1787885388 | 20° C | 94% | 1015.6 hPa | 0 mm | - | - | - |
| 1787884788 | 20° C | 94% | 1015.6 hPa | 0 mm | - | - | - |
| 1787884188 | 20° C | 94% | 1015.9 hPa | 0 mm | - | - | - |
| 1787883588 | 20° C | 93% | 1015.9 hPa | 0 mm | - | - | - |
| 1787882988 | 20.56° C | 93% | 1015.6 hPa | 0 mm | - | - | - |
| 1787882388 | 20.56° C | 93% | 1015.6 hPa | 0 mm | - | - | - |
| 1787881788 | 20.56° C | 93% | 1015.6 hPa | 0 mm | - | - | - |
| 1787881188 | 20.56° C | 93% | 1015.6 hPa | 0 mm | - | - | - |
| 1787880588 | 20.56° C | 93% | 1014.9 hPa | 0 mm | - | - | - |
| 1787879988 | 21.11° C | 92% | 1015.2 hPa | 0 mm | - | - | - |
| 1787879388 | 21.11° C | 92% | 1014.9 hPa | 0 mm | - | - | - |
| 1787878788 | 21.67° C | 92% | 1014.6 hPa | 0 mm | - | - | - |
| 1787878188 | 21.67° C | 92% | 1014.6 hPa | 0 mm | - | - | - |
| 1787877588 | 22.22° C | 90% | 1014.6 hPa | 0 mm | - | - | - |
| 1787876988 | 22.22° C | 89% | 1014.2 hPa | 0 mm | - | - | - |
* Rain latest hour (hover to see other rain measurements)
** Current wind speed in m/s (hover to see current wind gust speed)